Flag for U.S.A. Weather past 2 weeks in Compton, California, U.S.A.

Now
75 °F

Sunny.


Feels Like: 76 °F
Forecast: 67 / 84 °F
Wind: 6 mph from Northwest

Location: Hawthorne Municipal Airport

Current Time: Aug 30, 2014 at 7:53:37 PM

Latest Report: Aug 30, 2014 at 6:53 PM


Visibility: 10 mi

Pressure: 29.74 "Hg

Humidity: 74%

Dew point: 66 °F

Location of ComptonLocation

Historic Weather in Compton — Graph

°F

Compton temperature yesterday

Maximum temperature yesterday: 81 °F (at 11:53 AM)
Minimum temperature yesterday: 68 °F (at 2:53 AM)
Average temperature yesterday: 72 °F

Past Weeks' High & Low Weather Summary

 TemperatureHumidityPressure
High86 °F (Aug 27, 12:53 PM)90% (Aug 16, 5:53 AM)30.03 "Hg (Aug 16, 5:53 AM)
Low66 °F (Aug 26, 4:53 AM)18% (Aug 28, 4:53 PM)29.74 "Hg (Aug 30, 5:53 PM)
Average73 °F69%29.91 "Hg
* Reported Aug 15 5:53 PM — Aug 30 5:53 PM, Compton, Weather by CustomWeather, © 2014

Note: Actual official high and low records may vary slightly from our data, if they occured in-between our weather recording intervals... More about our weather records

Advertising

Compton weather history for previous 24 hours

 ConditionsComfort  
Time TempWeatherWind HumidityBarometerVisibility
5:53 PM
Aug 30
77 °FSunny.8 mph69%29.74 "Hg10 mi
4:53 PM78 °FSunny.9 mph64%29.75 "Hg10 mi
3:53 PM80 °FSunny.8 mph60%29.76 "Hg10 mi
2:53 PM81 °FSunny.9 mph58%29.78 "Hg10 mi
1:53 PM81 °FSunny.9 mph58%29.80 "Hg10 mi
12:53 PM81 °FSunny.8 mph58%29.81 "Hg10 mi
11:53 AM79 °FSunny.7 mph62%29.83 "Hg10 mi
10:53 AM77 °FSunny.3 mph62%29.84 "Hg10 mi
9:53 AM75 °FPassing clouds.No wind69%29.84 "Hg10 mi
8:53 AM71 °FPassing clouds.3 mph76%29.84 "Hg9 mi
8:00 AM70 °FScattered clouds.3 mph83%29.84 "Hg7 mi
6:53 AM67 °FFog.No wind90%29.83 "Hg6 mi
5:53 AM67 °FPassing clouds.No wind87%29.82 "Hg8 mi
4:53 AM67 °FPassing clouds.No wind87%29.81 "Hg10 mi
3:53 AM68 °FClear.No wind87%29.80 "Hg10 mi
2:53 AM68 °FClear.No wind90%29.81 "Hg10 mi
1:53 AM69 °FClear.No wind87%29.81 "Hg10 mi
12:53 AM69 °FClear.No wind87%29.82 "Hg10 mi
11:53 PM
Aug 29
69 °FPassing clouds.5 mph87%29.83 "Hg10 mi
10:53 PM69 °FClear.5 mph81%29.83 "Hg10 mi
9:53 PM69 °FClear.6 mph84%29.83 "Hg10 mi
8:53 PM70 °FClear.5 mph81%29.82 "Hg10 mi
7:53 PM70 °FSunny.7 mph79%29.81 "Hg10 mi
Weather by CustomWeather, © 2014

See weather overviewHow to use our weather pages